sat.trackr.live / text

‹ back to catalog

COSMOS 2482 (RODNIK-S 4)

NORAD 39057 · 2013-001A

PAYLOAD ACTIVE UNKNOWN

§ Identity

Operator
Country
CIS
Launch date
2013-01-15
Launch site
PLMSC
Launch vehicle
Mass (kg)
RCS (m²)
1.75

External: N2YO · Heavens-Above · Gunter

§ Orbital elements

Epoch: 2026-09-20T04:17:22.007616Z

Period
115.85 min
Inclination
82.5019°
Eccentricity
0.0026859
Mean motion
12.42998367 rev/d
Perigee alt
1,472.8 km
Apogee alt
1,515.1 km
Semi-major
7,872.1 km
B*
3.6992e-4
RAAN
161.2845°
Arg perigee
175.2966°
Mean anomaly
184.8371°
Rev number
62,051

§ Raw data

COSMOS 2482 (RODNIK-S 4)1 39057U 13001A   26263.17872694  .00000061  00000+0  36992-3 0  99902 39057  82.5019 161.2845 0026859 175.2966 184.8371 12.42998367620511

JSON: /api/v1/satellites/39057 · /tle

For live sub-satellite position, see the globe view (requires WebGL).

§ Visibility from observer

Set your observer location to see the next 7 days of passes ≥ 10°. The values pass through the URL so the page stays shareable.

No JS? Fill the form by hand. The geolocation button needs JavaScript.